Location: Unspecified
(0.0000°N, 0.0000°E)
Time: 19:19:52
(UTC+00:00)

SR - Visible Passes

Search period start: 31 July 2021 00:00
Search period end: 10 August 2021 00:00
Orbit: 577 x 877 km, 66.7° (Epoch: 31 July)

Date Brightness Start Highest point End Pass type
(mag) Time Alt. Az. Time Alt. Az. Time Alt. Az.
31 Jul ? 04:24:46 18° S 04:28:59 52° ESE 04:34:42 10° NE visible
01 Aug ? 03:37:24 19° SE 03:39:14 22° ESE 03:43:39 10° ENE visible
01 Aug ? 05:16:53 14° SW 05:21:05 31° WNW 05:26:11 10° N visible
02 Aug ? 04:29:29 45° SW 04:31:20 73° WNW 04:37:12 10° NNE visible
03 Aug ? 03:42:02 46° E 03:42:02 46° E 03:47:13 10° NE visible
03 Aug ? 05:21:30 12° W 05:23:28 14° WNW 05:26:23 10° NW visible
04 Aug ? 02:54:32 15° ENE 02:54:32 15° ENE 02:56:01 10° ENE visible
04 Aug ? 04:33:59 33° WNW 04:33:59 33° WNW 04:38:55 10° N visible
05 Aug ? 03:46:25 37° N 03:46:25 37° N 03:49:49 10° NNE visible
06 Aug ? 02:58:46 15° NE 02:58:46 15° NE 02:59:44 10° NE visible
06 Aug ? 04:38:12 13° NW 04:38:12 13° NW 04:39:21 10° NW visible
07 Aug ? 03:50:28 16° N 03:50:28 16° N 03:51:37 10° N visible
